Location: Banios
(43.0451°N, 0.2335°E)
Time: 04:51:53
(UTC+00:00)

N. Korean satellite - Pass Details

Date: 01 December 2021
Orbit: 447 x 491 km, 97.3° (Epoch: 25 January)

Event Time Altitude Azimuth Distance (km) Brightness Sun altitude
Rises 06:15:28 0° 354° (N) 2,472 9.9 -10.0°
Reaches altitude 10° 06:18:05 10° 332° (NNW) 1,588 8.7 -9.5°
Maximum altitude 06:20:12 16° 293° (WNW) 1,267 8.0 -9.2°
Drops below altitude 10° 06:22:19 10° 254° (WSW) 1,574 8.7 -8.8°
Sets 06:24:54 0° 232° (SW) 2,438 9.8 -8.4°
